User: anonymous   Login
Location: *
(41.0833°N, 73.4167°W)
Time: 09:23:43
(UTC+00:00)
Language:

Cosmos 1833 Rocket - Orbit

View from above orbital plane
View from above orbital plane
View from above satellite
View from above satellite

Ground track
Ground track

The orbit data is extracted from the following two-line orbital elements,

1 17590U 87027B   19340.59936826  .00000164  00000-0  10569-3 0  9996
2 17590  71.0041  49.6494 0005320 341.2027  18.8900 14.16777454691932
Epoch (UTC): 06 December 2019 14:23:05
Eccentricity: 0.0005320
inclination: 71.0041°
perigee height: 832 km
apogee height: 840 km
right ascension of ascending node: 49.6494°
argument of perigee: 341.2027°
revolutions per day: 14.16777454
mean anomaly at epoch: 18.8900°
orbit number at epoch: 69193

The dashed part of the orbit path shows where the satellite is in the earth's shadow,  

DLR